SPKNC EPGL-EPGL

Flight info

Callsign SPKNC
Flight time N/A
Altitude 4500
Route EPGL/EPKN/EPGL
Aircraft C150/L-SDG/C

Departure

Time 2026-05-05 16:23
Airport Gliwice-Trynek Airfield (EPGL)

Arrival

Time N/A
Airport Gliwice-Trynek Airfield (EPGL)
Time Latitude Longitude Altitude Speed Heading
2026-05-05 16:08 50.27255 18.67285 828 ft 0 kts 275°
2026-05-05 16:18 50.27210 18.67259 829 ft 7 kts 180°
2026-05-05 16:19 50.27167 18.67310 829 ft 12 kts 107°
2026-05-05 16:19 50.27135 18.67457 828 ft 13 kts 110°
2026-05-05 16:19 50.27081 18.67720 827 ft 14 kts 109°
2026-05-05 16:20 50.26979 18.67909 827 ft 9 kts 185°
2026-05-05 16:20 50.26866 18.67895 829 ft 9 kts 185°
2026-05-05 16:21 50.26754 18.67848 830 ft 0 kts 269°
2026-05-05 16:22 50.26746 18.67562 833 ft 50 kts 266°
2026-05-05 16:23 50.26744 18.66212 1100 ft 60 kts 255°
2026-05-05 16:23 50.26725 18.65551 1248 ft 59 kts 251°
2026-05-05 16:23 50.26611 18.64255 1530 ft 60 kts 245°
2026-05-05 16:24 50.26501 18.63521 1565 ft 72 kts 244°
2026-05-05 16:24 50.26386 18.62815 1724 ft 66 kts 241°
2026-05-05 16:24 50.26305 18.61317 1950 ft 75 kts 267°
2026-05-05 16:25 50.26584 18.60536 2020 ft 93 kts 300°
2026-05-05 16:25 50.27867 18.59806 2244 ft 103 kts 342°
2026-05-05 16:25 50.28610 18.59637 2315 ft 106 kts 342°
2026-05-05 16:26 50.29918 18.58920 2529 ft 96 kts 317°
2026-05-05 16:26 50.31038 18.57756 2702 ft 96 kts 313°
2026-05-05 16:27 50.31595 18.57156 2791 ft 96 kts 311°
2026-05-05 16:27 50.32140 18.56559 2878 ft 97 kts 310°
2026-05-05 16:27 50.32691 18.55936 2962 ft 97 kts 309°
2026-05-05 16:27 50.33184 18.55261 3049 ft 94 kts 298°
2026-05-05 16:28 50.33605 18.54485 3141 ft 91 kts 291°
2026-05-05 16:28 50.34005 18.53711 3213 ft 92 kts 291°
2026-05-05 16:28 50.34404 18.52928 3303 ft 91 kts 290°
2026-05-05 16:28 50.34796 18.52139 3388 ft 91 kts 290°
2026-05-05 16:29 50.35183 18.51346 3470 ft 91 kts 289°
2026-05-05 16:29 50.35565 18.50548 3551 ft 91 kts 289°
2026-05-05 16:29 50.35942 18.49742 3632 ft 91 kts 289°
2026-05-05 16:29 50.36310 18.48947 3716 ft 90 kts 288°
2026-05-05 16:30 50.36674 18.48144 3794 ft 90 kts 288°
2026-05-05 16:30 50.37032 18.47341 3872 ft 90 kts 288°
2026-05-05 16:30 50.37386 18.46527 3947 ft 90 kts 287°
2026-05-05 16:30 50.37736 18.45710 4023 ft 90 kts 287°
2026-05-05 16:31 50.38080 18.44887 4092 ft 91 kts 286°
2026-05-05 16:31 50.38421 18.44058 4169 ft 90 kts 285°
2026-05-05 16:31 50.38759 18.43217 4245 ft 90 kts 285°
2026-05-05 16:31 50.39090 18.42383 4316 ft 90 kts 284°
2026-05-05 16:32 50.39413 18.41555 4390 ft 89 kts 283°
2026-05-05 16:32 50.39733 18.40712 4435 ft 92 kts 283°
2026-05-05 16:32 50.40057 18.39839 4470 ft 94 kts 283°
2026-05-05 16:32 50.40384 18.38937 4475 ft 97 kts 283°
2026-05-05 16:33 50.40717 18.38027 4464 ft 95 kts 284°
2026-05-05 16:33 50.41045 18.37146 4468 ft 92 kts 284°
2026-05-05 16:33 50.41375 18.36267 4435 ft 94 kts 284°
2026-05-05 16:33 50.41712 18.35394 4435 ft 93 kts 284°
2026-05-05 16:34 50.42050 18.34517 4422 ft 93 kts 284°
2026-05-05 16:34 50.42394 18.33662 4419 ft 94 kts 286°
2026-05-05 16:34 50.42748 18.32859 4419 ft 95 kts 289°
2026-05-05 16:34 50.43157 18.31969 4427 ft 94 kts 289°
2026-05-05 16:35 50.43544 18.31129 4420 ft 95 kts 289°
2026-05-05 16:35 50.43945 18.30303 4425 ft 95 kts 292°
2026-05-05 16:35 50.44358 18.29486 4423 ft 95 kts 291°
2026-05-05 16:35 50.44771 18.28664 4424 ft 95 kts 292°
2026-05-05 16:36 50.45176 18.27854 4428 ft 95 kts 291°
2026-05-05 16:36 50.45589 18.27021 4424 ft 96 kts 291°
2026-05-05 16:36 50.45995 18.26202 4431 ft 95 kts 291°
2026-05-05 16:36 50.46399 18.25383 4427 ft 95 kts 291°
2026-05-05 16:37 50.46803 18.24569 4434 ft 95 kts 292°
2026-05-05 16:37 50.47300 18.23796 4357 ft 110 kts 309°
2026-05-05 16:37 50.47955 18.23112 4263 ft 113 kts 315°
2026-05-05 16:37 50.48636 18.22461 4127 ft 116 kts 317°
2026-05-05 16:38 50.49308 18.21777 3961 ft 115 kts 311°
2026-05-05 16:38 50.49873 18.20962 3783 ft 106 kts 294°
2026-05-05 16:38 50.50269 18.20047 3626 ft 100 kts 286°
2026-05-05 16:38 50.50587 18.19078 3432 ft 97 kts 275°
2026-05-05 16:39 50.50816 18.18090 3239 ft 96 kts 271°
2026-05-05 16:39 50.50979 18.17093 3008 ft 95 kts 267°
2026-05-05 16:39 50.51138 18.16042 2594 ft 100 kts 270°
2026-05-05 16:39 50.51279 18.15001 2257 ft 91 kts 269°
2026-05-05 16:40 50.51485 18.14111 1973 ft 86 kts 278°
2026-05-05 16:40 50.51713 18.13315 1744 ft 76 kts 276°
2026-05-05 16:40 50.51880 18.12559 1564 ft 72 kts 274°
2026-05-05 16:40 50.52075 18.11812 1331 ft 76 kts 276°
2026-05-05 16:41 50.52260 18.11072 1155 ft 72 kts 278°
2026-05-05 16:41 50.52433 18.10358 1012 ft 67 kts 279°
2026-05-05 16:41 50.52613 18.09690 890 ft 67 kts 282°
2026-05-05 16:41 50.52786 18.09014 764 ft 66 kts 281°
2026-05-05 16:42 50.52954 18.08366 673 ft 57 kts 286°
2026-05-05 16:42 50.53107 18.07780 693 ft 63 kts 281°
2026-05-05 16:42 50.53278 18.07145 822 ft 67 kts 278°
2026-05-05 16:42 50.53435 18.06454 976 ft 68 kts 276°
2026-05-05 16:43 50.53573 18.05704 1078 ft 75 kts 267°
2026-05-05 16:43 50.53431 18.05062 1249 ft 59 kts 206°
2026-05-05 16:43 50.53056 18.04943 1420 ft 54 kts 182°
2026-05-05 16:43 50.52689 18.04921 1596 ft 51 kts 180°
2026-05-05 16:44 50.52383 18.05197 1751 ft 61 kts 134°
2026-05-05 16:44 50.52266 18.05937 1802 ft 80 kts 115°
2026-05-05 16:44 50.52118 18.06854 1768 ft 90 kts 120°
2026-05-05 16:44 50.51949 18.07746 1747 ft 81 kts 124°
2026-05-05 16:45 50.51761 18.08578 1633 ft 85 kts 121°
2026-05-05 16:45 50.51581 18.09440 1572 ft 77 kts 120°
2026-05-05 16:45 50.51532 18.10273 1500 ft 79 kts 83°
2026-05-05 16:45 50.52000 18.10832 1295 ft 94 kts 11°
2026-05-05 16:46 50.52513 18.10502 1044 ft 69 kts 285°
2026-05-05 16:46 50.52617 18.09815 903 ft 65 kts 268°
2026-05-05 16:46 50.52760 18.09110 788 ft 70 kts 281°
2026-05-05 16:46 50.52947 18.08395 681 ft 67 kts 286°
2026-05-05 16:47 50.53062 18.07947 665 ft 12 kts 293°
2026-05-05 16:47 50.53065 18.07937 665 ft 0 kts 288°